Content
SEND FEEDBACK

Daily
Averages
Monthly
Summary
United States of America

HAYDEN, IDAHO


Home > North America > United States > Idaho
Elevation: 2306 feet     Latitude: 47 46N     Longitude: 116 49W

WEATHER
 
SELECT A DAY
Number of Records: 445,245;   Date Range: 1/1/95 - 7/7/14
 
SHARE

PRINT THIS DATA

[ ← Previous Day ]
WEATHER ALMANAC - FEBRUARY 13, 2013
[ Next Day → ]
[ °C ]   °F
Weather ElementAverageHighLow
Temperature38.2 °F48.2 °F (1:35 pm)26.6 °F (11:55 pm)
Dewpoint30.6 °F35.6 °F (10:35 am)21.2 °F (8:15 pm)
Humidity75.1 %93 % (5:55 am)50 % (1:35 pm)
Barometer30.19 in30.32 in (11:35 pm)30.12 in (4:15 am)
Wind Speed8.6 mph17.3 mph (4:15 am)
Wind Gust23 mph (4:15 am)
Weather ElementAverage
Visibility10 mi
Wind DirectionSSW (216.1 °)

Weather ElementTotal
Precipitation---
Heating Degree Days27.6 (Base 65)
Averaged from 70 records on February 13, 2013
WEATHER CONDITIONS BREAKOUT
WIND DIRECTION BREAKOUT
WEATHER BY HOUR - FEBRUARY 13, 2013
[ °C ]   °F
Local TimeTemperatureDewpointHumidityBarometerVisibilityWind DirectionWind SpeedGust SpeedPrecipitationEventsConditions
12:35 AM37.4 °F33.8 °F87 %30.15 in10.0 miWest (260°)5.8 mphOvercast
12:55 AM39.2 °F33.8 °F81 %30.14 in10.0 miWest (270°)8.1 mphOvercast
1:15 AM39.2 °F33.8 °F81 %30.14 in10.0 miWest (270°)11.5 mphOvercast
1:35 AM37.4 °F33.8 °F87 %30.14 in10.0 miWest (270°)12.7 mphOvercast
1:55 AM37.4 °F33.8 °F87 %30.14 in10.0 miWest (270°)11.5 mphOvercast
2:15 AM37.4 °F33.8 °F87 %30.14 in10.0 miWest (260°)10.4 mphOvercast
2:35 AM37.4 °F33.8 °F87 %30.14 in10.0 miWest (260°)11.5 mph18.4 mphOvercast
2:55 AM37.4 °F33.8 °F87 %30.13 in10.0 miWest (260°)10.4 mphOvercast
3:15 AM37.4 °F33.8 °F87 %30.13 in10.0 miWest (260°)12.7 mphOvercast
3:35 AM37.4 °F33.8 °F87 %30.13 in10.0 miWest (270°)13.8 mphOvercast
4:15 AM37.4 °F33.8 °F87 %30.12 in10.0 miWSW (250°)17.3 mph23.0 mphScattered Clouds
4:35 AM37.4 °F33.8 °F87 %30.12 in10.0 miWSW (250°)11.5 mphMostly Cloudy
4:55 AM37.4 °F33.8 °F87 %30.13 in10.0 miWSW (250°)9.2 mphPartly Cloudy
5:15 AM37.4 °F33.8 °F87 %30.13 in10.0 miWSW (250°)9.2 mphPartly Cloudy
5:35 AM35.6 °F32.0 °F87 %30.13 in10.0 miWSW (240°)10.4 mphMostly Cloudy
5:55 AM35.6 °F33.8 °F93 %30.14 in10.0 miWSW (250°)11.5 mphMostly Cloudy
6:15 AM35.6 °F33.8 °F93 %30.14 in10.0 miWSW (240°)11.5 mphMostly Cloudy
6:35 AM35.6 °F33.8 °F93 %30.15 in10.0 miWSW (240°)11.5 mphMostly Cloudy
6:55 AM35.6 °F33.8 °F93 %30.15 in10.0 miWSW (240°)8.1 mphMostly Cloudy
7:15 AM35.6 °F33.8 °F93 %30.16 in10.0 miSSW (210°)4.6 mphOvercast
7:35 AM37.4 °F33.8 °F87 %30.16 in10.0 miSW (220°)9.2 mphOvercast
7:55 AM37.4 °F32.0 °F81 %30.17 in10.0 miWSW (240°)11.5 mphMostly Cloudy
8:15 AM37.4 °F33.8 °F87 %30.17 in10.0 miSW (230°)12.7 mphClear
8:35 AM37.4 °F33.8 °F87 %30.17 in10.0 miSW (230°)12.7 mphClear
8:55 AM39.2 °F33.8 °F81 %30.18 in10.0 miWSW (240°)12.7 mphClear
9:15 AM39.2 °F33.8 °F81 %30.19 in10.0 miSW (230°)6.9 mphPartly Cloudy
9:35 AM39.2 °F33.8 °F81 %30.19 in10.0 miWSW (240°)8.1 mphMostly Cloudy
9:55 AM42.8 °F33.8 °F70 %30.19 in10.0 miWSW (250°)12.7 mphOvercast
10:15 AM42.8 °F33.8 °F70 %30.20 in10.0 miWSW (240°)12.7 mph
10:35 AM42.8 °F35.6 °F76 %30.19 in10.0 miWSW (250°)12.7 mph16.1 mphMostly Cloudy
10:55 AM44.6 °F35.6 °F71 %30.19 in10.0 miWSW (250°)9.2 mphMostly Cloudy
11:15 AM44.6 °F35.6 °F71 %30.19 in10.0 miWSW (250°)6.9 mphPartly Cloudy
11:35 AM46.4 °F35.6 °F66 %30.19 in10.0 miWest (260°)13.8 mphClear
11:55 AM46.4 °F33.8 °F62 %30.18 in10.0 miWest (260°)10.4 mph16.1 mphClear
12:15 PM44.6 °F33.8 °F66 %30.18 in10.0 miWSW (240°)12.7 mphClear
12:35 PM46.4 °F35.6 °F66 %30.17 in10.0 miWest (260°)10.4 mphClear
12:55 PM46.4 °F32.0 °F57 %30.17 in10.0 miWSW (250°)9.2 mphClear
1:15 PM46.4 °F32.0 °F57 %30.17 in10.0 miWSW (240°)11.5 mphClear
1:35 PM48.2 °F30.2 °F50 %30.16 in10.0 miWest (260°)10.4 mphClear
1:55 PM46.4 °F28.4 °F50 %30.17 in10.0 miWSW (240°)10.4 mphClear
2:15 PM46.4 °F30.2 °F53 %30.17 in10.0 miWest (270°)10.4 mphClear
2:35 PM46.4 °F30.2 °F53 %30.17 in10.0 miWSW (250°)10.4 mphPartly Cloudy
2:55 PM44.6 °F30.2 °F57 %30.18 in10.0 miWest (260°)10.4 mphMostly Cloudy
3:15 PM44.6 °F30.2 °F57 %30.19 in10.0 miWSW (240°)11.5 mphMostly Cloudy
3:35 PM44.6 °F30.2 °F57 %30.19 in10.0 miWSW (250°)9.2 mphPartly Cloudy
3:55 PM42.8 °F30.2 °F61 %30.20 in10.0 miWSW (250°)10.4 mphClear
4:15 PM42.8 °F28.4 °F57 %30.20 in10.0 miWSW (250°)10.4 mphPartly Cloudy
4:35 PM41.0 °F28.4 °F61 %30.20 in10.0 miWSW (250°)8.1 mphPartly Cloudy
4:55 PM39.2 °F30.2 °F70 %30.21 in10.0 miWest (260°)10.4 mphClear
5:15 PM39.2 °F28.4 °F65 %30.21 in10.0 miWest (260°)10.4 mphClear
5:35 PM37.4 °F28.4 °F70 %30.21 in10.0 miWest (270°)9.2 mphScattered Clouds
5:55 PM37.4 °F28.4 °F70 %30.21 in10.0 miWest (280°)9.2 mphScattered Clouds
6:15 PM35.6 °F26.6 °F70 %30.22 in10.0 miWest (260°)11.5 mphMostly Cloudy
6:35 PM35.6 °F26.6 °F70 %30.22 in10.0 miWSW (250°)5.8 mphScattered Clouds
6:55 PM35.6 °F26.6 °F70 %30.23 in10.0 miSSW (200°)4.6 mphClear
7:15 PM37.4 °F24.8 °F60 %30.24 in10.0 miWSW (250°)5.8 mphClear
7:35 PM33.8 °F23.0 °F65 %30.25 in10.0 miSW (220°)4.6 mphClear
7:55 PM33.8 °F24.8 °F70 %30.25 in10.0 miSW (230°)4.6 mphClear
8:15 PM33.8 °F21.2 °F60 %30.26 in10.0 miSSW (200°)3.5 mphPartly Cloudy
8:35 PM33.8 °F26.6 °F75 %30.26 in10.0 miCalmScattered Clouds
8:55 PM32.0 °F21.2 °F64 %30.27 in10.0 miCalmPartly Cloudy
9:15 PM30.2 °F26.6 °F86 %30.28 in10.0 miESE (120°)3.5 mphClear
9:35 PM30.2 °F24.8 °F80 %30.28 in10.0 miCalmClear
9:55 PM30.2 °F26.6 °F86 %30.29 in10.0 miCalmClear
10:15 PM28.4 °F23.0 °F80 %30.29 in10.0 miCalmClear
10:35 PM28.4 °F23.0 °F80 %30.30 in10.0 miSouth (190°)3.5 mphClear
10:55 PM28.4 °F23.0 °F80 %30.30 in10.0 miCalmClear
11:15 PM30.2 °F28.4 °F93 %30.31 in10.0 miCalmClear
11:35 PM28.4 °F21.2 °F74 %30.32 in10.0 miSouth (170°)3.5 mphClear
11:55 PM26.6 °F23.0 °F86 %30.32 in10.0 miCalmClear
Hourly data recorded from KCOE, located miles away from Hayden, Idaho







STORIES FROM OUR PARTNERS